User: anonymous   Login
Location: Caltech
(34.1382°N, 118.1253°W)
Time: 11:21:11
(UTC-07:00)
Language:

Iridium 14 - Orbit

View from above orbital plane
View from above orbital plane
View from above satellite
View from above satellite

Ground track
Ground track

The orbit data is extracted from the following two-line orbital elements,

1 25777U 99032A   18114.31771084 -.00000014  00000-0 -11958-4 0  9992
2 25777  86.3930  93.9385 0002354  82.6007 277.5456 14.34214369999272
Epoch (UTC): 24 April 2018 07:37:30
Eccentricity: 0.0002354
inclination: 86.3930°
perigee height: 776 km
apogee height: 779 km
right ascension of ascending node: 93.9385°
argument of perigee: 82.6007°
revolutions per day: 14.34214369
mean anomaly at epoch: 277.5456°
orbit number at epoch: 99927

The dashed part of the orbit path shows where the satellite is in the earth's shadow,  

DLR